Content
SEND FEEDBACK

Daily
Averages
Monthly
Summary
Canada

STRATFORD, ONTARIO


Home > North America > Canada > Ontario
Elevation: 1161 feet     Latitude: 43 24N     Longitude: 081 00W

WEATHER
 
SELECT A DAY
Number of Records: 196,894;   Date Range: 1/1/95 - 12/26/14
 
SHARE

PRINT THIS DATA

[ ← Previous Day ]
WEATHER ALMANAC - JULY 1, 2013
[ Next Day → ]
[ °C ]   °F
We're sorry. There is no daily almanac available for Stratford, Ontario on July 1, 2013.
WEATHER BY HOUR - JULY 1, 2013
[ °C ]   °F
Local TimeTemperatureDewpointHumidityBarometerVisibilityWind DirectionWind SpeedGust SpeedPrecipitationEventsConditions
1:00 AM62.6 °F59.0 °F88 %29.96 in15.0 miNorth (10°)5.8 mphScattered Clouds
2:00 AM64.0 °F55.0 °F66 %29.96 in15.0 miNE (50°)10.4 mph
2:00 AM64.4 °F55.4 °F73 %29.96 in15.0 miNE (50°)10.4 mphMostly Cloudy
3:00 AM62.6 °F53.6 °F72 %29.96 in15.0 miNE (40°)10.4 mphMostly Cloudy
4:00 AM62.6 °F51.8 °F68 %29.95 in15.0 miNNE (30°)9.2 mphOvercast
5:00 AM62.6 °F50.0 °F63 %29.96 in15.0 miNE (50°)9.2 mphOvercast
6:00 AM60.8 °F50.0 °F68 %29.97 in10.0 miNE (50°)10.4 mphOvercast
7:00 AM62.6 °F51.8 °F68 %29.99 in10.0 miNE (50°)11.5 mphOvercast
8:00 AM62.6 °F51.8 °F68 %30.00 in10.0 miNE (50°)13.8 mphOvercast
8:00 AM63.0 °F51.0 °F56 %30.00 in10.0 miNE (50°)11.5 mphOvercast
9:00 AM64.4 °F53.6 °F68 %30.01 in10.0 miNE (50°)10.4 mphOvercast
10:00 AM64.4 °F55.4 °F73 %30.01 in10.0 miNE (40°)10.4 mphOvercast
11:00 AM66.2 °F55.4 °F68 %30.01 in10.0 miNE (50°)11.5 mphOvercast
12:00 PM66.2 °F55.4 °F68 %30.02 in10.0 miNE (50°)10.4 mph17.3 mphOvercast
1:00 PM68.0 °F57.2 °F68 %30.03 in10.0 miNE (50°)15.0 mph21.9 mphRainLight Rain
2:00 PM69.8 °F57.2 °F64 %30.03 in10.0 miNE (40°)17.3 mph24.2 mphRainLight Rain
2:00 PM69.0 °F57.0 °F56 %30.04 in10.0 miNE (50°)17.3 mphOvercast
2:54 PM68.0 °F57.2 °F68 %30.04 in10.0 miNE (40°)10.4 mph19.6 mphOvercast
3:00 PM68.0 °F55.4 °F64 %30.04 in10.0 miNE (40°)13.8 mphOvercast
4:00 PM68.0 °F53.6 °F60 %30.04 in10.0 miNE (40°)9.2 mphOvercast
5:00 PM68.0 °F51.8 °F56 %30.04 in15.0 miNE (50°)10.4 mph18.4 mphOvercast
6:00 PM69.8 °F55.4 °F60 %30.04 in15.0 miENE (60°)6.9 mphOvercast
6:41 PM68.0 °F55.4 °F64 %30.05 in10.0 miENE (60°)10.4 mphRainLight Rain Showers
7:00 PM68.0 °F57.2 °F68 %30.05 in10.0 miNE (40°)8.1 mphRainLight Rain Showers
7:25 PM68.0 °F55.4 °F64 %30.05 in12.0 miNE (50°)9.2 mphOvercast
8:00 PM67.0 °F55.0 °F56 %30.06 in15.0 miNE (40°)6.9 mphOvercast
8:00 PM66.2 °F55.4 °F68 %30.06 in15.0 miNE (40°)5.8 mphOvercast
9:00 PM66.2 °F55.4 °F68 %30.07 in15.0 miENE (70°)12.7 mphOvercast
9:53 PM64.4 °F57.2 °F77 %30.09 in10.0 miEast (80°)11.5 mphRainLight Rain Showers
10:00 PM64.4 °F57.2 °F77 %30.09 in15.0 miENE (60°)10.4 mphRainLight Rain Showers
10:33 PM64.4 °F55.4 °F73 %30.08 in15.0 miENE (60°)10.4 mphMostly Cloudy
11:00 PM62.6 °F55.4 °F77 %30.08 in15.0 miENE (70°)6.9 mphMostly Cloudy
Hourly data recorded from CYXU, located miles away from Stratford, Ontario







STORIES FROM OUR PARTNERS